DW6193 Weather Reports


Display with metric or nautical units.
time (UTC)temp
F
wind
direction
speed
MPH
gust
MPH
rain 1hr
in
rain 24hr
in
rain mn
in
humidity
%
barometer
mb
20260510234026 77 286 2.0 10.0 0.00 0.00 0.00 1021.2
20260510233527 71 286 3.0 10.0 0.00 0.00 0.00 1021.1
20260510233042 76 141 3.0 7.0 0.00 0.00 0.00 1021.1
20260510232526 79 301 2.0 7.0 0.00 0.00 0.00 1021.2
20260510232026 78 295 2.0 7.0 0.00 0.00 0.00 1021.4
20260510231539 76 118 2.0 7.0 0.00 0.00 0.00 1021.2
20260510231026 74 268 1.0 6.0 0.00 0.00 0.00 1021.3
20260510230528 73 295 2.0 6.0 0.00 0.00 0.00 1021.1
20260510230036 72 243 1.0 6.0 0.00 0.00 0.00 1021.3
20260510225527 71 355 2.0 6.0 0.00 0.00 0.00 1021.3
20260510225030 73 16 1.0 5.0 0.00 0.00 0.00 1021.4
20260510224536 73 243 1.0 5.0 0.00 0.00 0.00 1021.4
20260510224025 74 234 1.0 7.0 0.00 0.00 0.00 1021.4
20260510223526 74 55 2.0 7.0 0.00 0.00 0.00 1021.1
20260510223040 73 288 2.0 8.0 0.00 0.00 0.00 1021.2
20260510222530 69 76 2.0 8.0 0.00 0.00 0.00 1021.2
20260510222027 71 64 2.0 10.0 0.00 0.00 0.00 1021.3
20260510221539 70 309 3.0 10.0 0.00 0.00 0.00 1021.3
20260510221028 71 311 2.0 7.0 0.00 0.00 0.00 1021.1
20260510220528 74 349 3.0 7.0 0.00 0.00 0.00 1021.2
20260510220038 74 99 2.0 7.0 0.00 0.00 0.00 1021.1
20260510215528 77 99 2.0 8.0 0.00 0.00 0.00 1021.1
20260510215028 73 227 3.0 8.0 0.00 0.00 0.00 1021.4
20260510214543 74 337 2.0 7.0 0.00 0.00 0.00 1021.4
20260510214027 73 311 0.0 6.0 0.00 0.00 0.00 1021.5
20260510213529 72 255 1.0 7.0 0.00 0.00 0.00 1021.3
20260510213051 74 297 2.0 7.0 0.00 0.00 0.00 1021.4
20260510212528 76 107 1.0 5.0 0.00 0.00 0.00 1021.5
20260510212028 74 59 1.0 6.0 0.00 0.00 0.00 1021.3
20260510211542 76 0 1.0 6.0 0.00 0.00 0.00 1021.2
20260510211028 72 288 1.0 4.0 0.00 0.00 0.00 1021.3
20260510210529 69 290 1.0 5.0 0.00 0.00 0.00 1021.4
20260510210037 68 243 1.0 5.0 0.00 0.00 0.00 1021.3
20260510205527 68 276 1.0 5.0 0.00 0.00 0.00 1021.4
20260510205028 70 295 1.0 5.0 0.00 0.00 0.00 1021.4
20260510204546 66 290 1.0 5.0 0.00 0.00 0.00 1021.4
20260510204027 66 290 1.0 5.0 0.00 0.00 0.00 1021.1
20260510203527 68 274 1.0 4.0 0.00 0.00 0.00 1021.0
20260510203038 69 158 1.0 5.0 0.00 0.00 0.00 1021.0
20260510202533 74 210 0.0 5.0 0.00 0.00 0.00 1020.9
20260510202027 71 99 1.0 4.0 0.00 0.00 0.00 1020.9
20260510201535 69 216 1.0 3.0 0.00 0.00 0.00 1021.0
20260510201028 65 99 1.0 3.0 0.00 0.00 0.00 1021.2
20260510200529 65 141 1.0 3.0 0.00 0.00 0.00 1021.2
20260510200038 64 329 1.0 4.0 0.00 0.00 0.00 1021.4
20260510195526 64 268 0.0 4.0 0.00 0.00 0.00 1021.1
20260510195027 62 268 1.0 4.0 0.00 0.00 0.00 1021.1
20260510194536 62 283 0.0 4.0 0.00 0.00 0.00 1021.0
20260510194028 62 151 0.0 7.0 0.00 0.00 0.00 1021.0
20260510193527 61 268 2.0 7.0 0.00 0.00 0.00 1020.9
20260510193036 64 286 1.0 4.0 0.00 0.00 0.00 1021.1
20260510192526 66 103 2.0 5.0 0.00 0.00 0.00 1021.1
20260510192026 67 0 1.0 5.0 0.00 0.00 0.00 1021.2
20260510191538 68 227 2.0 6.0 0.00 0.00 0.00 1021.2
20260510191026 70 295 1.0 6.0 0.00 0.00 0.00 1021.0
20260510190531 69 268 2.0 6.0 0.00 0.00 0.00 1021.0
20260510190041 68 141 1.0 4.0 0.00 0.00 0.00 1020.9
20260510185526 68 116 0.0 4.0 0.00 0.00 0.00 1020.9
20260510185029 64 329 0.0 4.0 0.00 0.00 0.00 1020.9
20260510184540 63 0 1.0 4.0 0.00 0.00 0.00 1020.9
20260510184027 64 39 1.0 4.0 0.00 0.00 0.00 1021.0
20260510183529 63 99 1.0 5.0 0.00 0.00 0.00 1020.9
20260510183043 61 39 0.0 5.0 0.00 0.00 0.00 1020.9
20260510182528 61 300 0.0 4.0 0.00 0.00 0.00 1020.9
20260510182028 60 0 1.0 4.0 0.00 0.00 0.00 1020.8
20260510181545 62 0 1.0 4.0 0.00 0.00 0.00 1021.0
20260510181028 64 268 1.0 4.0 0.00 0.00 0.00 1020.8
20260510180528 62 0 1.0 5.0 0.00 0.00 0.00 1020.9
20260510180041 61 227 1.0 5.0 0.00 0.00 0.00 1020.8
20260510175526 60 286 1.0 5.0 0.00 0.00 0.00 1020.9
20260510175027 60 183 1.0 4.0 0.00 0.00 0.00 1020.8
20260510174541 59 295 0.0 6.0 0.00 0.00 0.00 1020.8
20260510174027 58 0 1.0 6.0 0.00 0.00 0.00 1020.8
20260510173526 55 280 1.0 4.0 0.00 0.00 0.00 1020.6
20260510173043 56 268 0.0 3.0 0.00 0.00 0.00 1020.6
20260510172528 56 0 0.0 7.0 0.00 0.00 0.00 1020.6
20260510172026 55 268 1.0 7.0 0.00 0.00 0.00 1020.4
20260510171537 54 241 2.0 7.0 0.00 0.00 0.00 1020.4
20260510171027 54 216 3.0 7.0 0.00 0.00 0.00 1020.4
20260510170526 54 124 3.0 7.0 0.00 0.00 0.00 1020.2
20260510170037 54 213 2.0 8.0 0.00 0.00 0.00 1020.3
20260510165526 54 276 2.0 8.0 0.00 0.00 0.00 1020.2
20260510165027 54 307 1.0 7.0 0.00 0.00 0.00 1020.3
20260510164553 55 288 1.0 6.0 0.00 0.00 0.00 1020.4
20260510164025 55 157 0.0 4.0 0.00 0.00 0.00 1020.5
20260510163526 55 22 0.0 4.0 0.00 0.00 0.00 1020.3
20260510163045 55 0 0.0 3.0 0.00 0.00 0.00 1020.2
20260510162526 55 216 1.0 3.0 0.00 0.00 0.00 1020.3
20260510162030 56 283 1.0 8.0 0.00 0.00 0.00 1020.2
20260510161542 56 283 0.0 8.0 0.00 0.00 0.00 1020.1
20260510161026 54 255 2.0 8.0 0.00 0.00 0.00 1020.1
20260510160526 54 274 1.0 5.0 0.00 0.00 0.00 1019.9
20260510160044 54 283 1.0 4.0 0.00 0.00 0.00 1019.9
20260510155526 54 99 0.0 4.0 0.00 0.00 0.00 1019.8
20260510155027 54 0 0.0 4.0 0.00 0.00 0.00 1019.8
20260510154538 54 286 1.0 5.0 0.00 0.00 0.00 1019.6
20260510154025 53 166 1.0 5.0 0.00 0.00 0.00 1019.8
20260510153525 54 243 1.0 5.0 0.00 0.00 0.00 1019.9
20260510153045 54 295 1.0 7.0 0.00 0.00 0.00 1019.7
20260510152528 54 141 0.0 8.0 0.00 0.00 0.00 1019.7
20260510152029 54 299 2.0 8.0 0.00 0.00 0.00 1019.8
20260510151537 55 311 1.0 4.0 0.00 0.00 0.00 1019.8
20260510151026 55 124 1.0 4.0 0.00 0.00 0.00 1019.5
20260510150528 55 109 1.0 6.0 0.00 0.00 0.00 1019.4
20260510150048 55 0 1.0 6.0 0.00 0.00 0.00 1019.4
20260510145530 55 283 0.0 6.0 0.00 0.00 0.00 1019.3
20260510145026 54 0 0.0 6.0 0.00 0.00 0.00 1019.4
20260510144548 53 283 2.0 6.0 0.00 0.00 0.00 1019.3
20260510144027 53 290 2.0 5.0 0.00 0.00 0.00 1019.2
20260510143527 54 227 0.0 3.0 0.00 0.00 0.00 1019.2
20260510143037 54 268 1.0 3.0 0.00 0.00 0.00 1019.2
20260510142529 54 311 1.0 7.0 0.00 0.00 0.00 1018.9
20260510142027 53 255 1.0 8.0 0.00 0.00 0.00 1019.2
20260510141536 53 282 3.0 10.0 0.00 0.00 0.00 1019.2
20260510141028 52 275 4.0 10.0 0.00 0.00 0.00 1019.1
20260510140527 53 286 3.0 10.0 0.00 0.00 0.00 1018.9
20260510140043 53 198 1.0 5.0 0.00 0.00 0.00 1019.0
20260510135528 53 183 1.0 7.0 0.00 0.00 0.00 1018.9
20260510135026 53 183 1.0 7.0 0.00 0.00 0.00 1018.8
20260510134552 53 99 2.0 7.0 0.00 0.00 0.00 1018.7
20260510134025 53 183 1.0 5.0 0.00 0.00 0.00 1018.7
20260510133527 53 280 1.0 5.0 0.00 0.00 0.00 1018.5
20260510133038 53 0 1.0 7.0 0.00 0.00 0.00 1018.6
20260510132526 53 268 2.0 7.0 0.00 0.00 0.00 1018.7
20260510132026 53 0 2.0 10.0 0.00 0.00 0.00 1018.5
20260510131536 52 292 2.0 10.0 0.00 0.00 0.00 1018.5
20260510131026 52 277 6.0 10.0 0.00 0.00 0.00 1018.9
20260510130528 52 276 5.0 10.0 0.00 0.00 0.00 1019.0
20260510130037 52 300 3.0 10.0 0.00 0.00 0.00 1018.9
20260510125528 52 232 5.0 10.0 0.00 0.00 0.00 1018.8
20260510125028 52 286 4.0 9.0 0.00 0.00 0.00 1018.8
20260510124543 52 297 4.0 10.0 0.00 0.00 0.00 1018.7
20260510124028 52 276 5.0 10.0 0.00 0.00 0.00 1018.7
20260510123528 52 295 5.0 9.0 0.00 0.00 0.00 1018.8
20260510123042 52 293 5.0 11.0 0.00 0.00 0.00 1018.7
20260510122529 52 18 5.0 11.0 0.00 0.00 0.00 1018.7
20260510122030 52 286 7.0 11.0 0.00 0.00 0.00 1018.6
20260510121537 52 279 7.0 11.0 0.00 0.00 0.00 1018.8
20260510121031 53 290 7.0 10.0 0.00 0.00 0.00 1018.7
20260510120527 53 300 5.0 9.0 0.00 0.00 0.00 1018.7
20260510120037 52 298 6.0 8.0 0.00 0.00 0.00 1018.6
20260510115526 53 290 5.0 10.0 0.00 0.00 0.00 1018.4
20260510115027 53 274 4.0 10.0 0.00 0.00 0.00 1018.5
20260510114537 53 285 6.0 11.0 0.00 0.00 0.00 1018.7
20260510114028 53 286 7.0 12.0 0.00 0.00 0.00 1018.7
20260510113527 53 259 4.0 12.0 0.00 0.00 0.00 1018.5
20260510113041 53 327 4.0 10.0 0.00 0.00 0.00 1018.4
20260510112528 54 22 3.0 14.0 0.00 0.00 0.00 1018.3
20260510112028 54 277 5.0 14.0 0.00 0.00 0.00 1018.3
20260510111539 54 301 5.0 12.0 0.00 0.00 0.00 1018.1
20260510111028 55 274 4.0 12.0 0.00 0.00 0.00 1018.1
20260510110531 55 268 4.0 13.0 0.00 0.00 0.00 1018.0
20260510110040 55 263 4.0 13.0 0.00 0.00 0.00 1018.0
20260510105526 56 284 8.0 13.0 0.00 0.00 0.00 1018.0
20260510105024 56 284 3.0 8.0 0.00 0.00 0.00 1017.8
20260510104537 56 311 1.0 7.0 0.00 0.00 0.00 1017.6
20260510104027 56 214 1.0 8.0 0.00 0.00 0.00 1017.8
20260510103523 57 268 3.0 8.0 0.00 0.00 0.00 1017.7
20260510103043 57 285 3.0 6.0 0.00 0.00 0.00 1017.4
20260510102530 57 295 3.0 6.0 0.00 0.00 0.00 1017.5
20260510102028 57 290 2.0 6.0 0.00 0.00 0.00 1017.3
20260510101537 57 271 4.0 6.0 0.00 0.00 0.00 1017.2
20260510101023 57 251 3.0 8.0 0.00 0.00 0.00 1017.2
20260510100526 58 293 4.0 8.0 0.00 0.00 0.00 1017.2
20260510100049 58 291 5.0 9.0 0.00 0.00 0.00 1017.3
20260510095523 58 286 5.0 9.0 0.00 0.00 0.00 1017.4
20260510095024 58 293 4.0 8.0 0.00 0.00 0.00 1017.5
20260510094544 57 288 3.0 6.0 0.00 0.00 0.00 1017.4
20260510094024 58 246 1.0 5.0 0.00 0.00 0.00 1017.5
20260510093524 58 268 1.0 7.0 0.00 0.00 0.00 1017.5
20260510093036 58 274 3.0 7.0 0.00 0.00 0.00 1017.3
20260510092525 58 281 2.0 5.0 0.00 0.00 0.00 1017.3
20260510092027 58 268 0.0 5.0 0.00 0.00 0.00 1017.2
20260510091536 57 278 2.0 5.0 0.00 0.00 0.00 1017.1
20260510091025 58 210 1.0 5.0 0.00 0.00 0.00 1017.0
20260510090523 58 311 2.0 5.0 0.00 0.00 0.00 1017.0
20260510090040 57 230 3.0 5.0 0.00 0.00 0.00 1017.0
20260510085523 58 236 2.0 5.0 0.00 0.00 0.00 1017.0
20260510085026 58 252 2.0 5.0 0.00 0.00 0.00 1017.0
20260510084549 59 236 1.0 4.0 0.00 0.00 0.00 1017.0
20260510084023 59 268 1.0 4.0 0.00 0.00 0.00 1016.9
20260510083527 59 277 0.0 3.0 0.00 0.00 0.00 1017.0
20260510083041 59 227 1.0 5.0 0.00 0.00 0.00 1017.0
20260510082524 59 259 2.0 5.0 0.00 0.00 0.00 1017.1
20260510082024 59 261 2.0 4.0 0.00 0.00 0.00 1017.1
20260510081537 60 238 1.0 4.0 0.00 0.00 0.00 1017.1
20260510081024 61 252 0.0 2.0 0.00 0.00 0.00 1017.0
20260510080524 61 0 0.0 2.0 0.00 0.00 0.00 1017.0
20260510080036 62 0 0.0 2.0 0.00 0.00 0.00 1017.1
20260510075532 62 0 0.0 3.0 0.00 0.00 0.00 1017.1
20260510075028 62 141 1.0 4.0 0.00 0.00 0.00 1017.2
20260510074537 63 109 1.0 4.0 0.00 0.00 0.00 1017.0
20260510074028 63 116 2.0 4.0 0.00 0.00 0.00 1017.1
20260510073528 63 0 1.0 5.0 0.00 0.00 0.00 1017.0
20260510073047 63 273 2.0 9.0 0.00 0.00 0.00 1017.0
20260510072528 64 290 2.0 10.0 0.00 0.00 0.00 1016.9
20260510072029 64 286 5.0 10.0 0.00 0.00 0.00 1017.0
20260510071548 64 280 5.0 9.0 0.00 0.00 0.00 1016.9
20260510071028 64 272 5.0 10.0 0.00 0.00 0.00 1016.9
20260510070529 64 273 5.0 10.0 0.00 0.00 0.00 1016.9
20260510070042 64 272 5.0 10.0 0.00 0.00 0.00 1017.0
20260510065529 65 251 5.0 10.0 0.00 0.00 0.00 1017.0
20260510065026 65 259 4.0 8.0 0.00 0.00 0.00 1017.0
20260510064545 65 248 4.0 7.0 0.00 0.00 0.00 1016.9
20260510064028 65 268 4.0 8.0 0.00 0.00 0.00 1016.8
20260510063528 65 273 4.0 8.0 0.00 0.00 0.00 1017.0
20260510063038 65 277 3.0 8.0 0.00 0.00 0.00 1017.0
20260510062528 65 278 3.0 7.0 0.00 0.00 0.00 1017.2
20260510062028 65 261 4.0 7.0 0.00 0.00 0.00 1016.9
20260510061538 65 284 4.0 6.0 0.00 0.00 0.00 1016.9
20260510061028 65 277 4.0 7.0 0.00 0.00 0.00 1017.0
20260510060525 66 288 5.0 7.0 0.00 0.00 0.00 1016.9
20260510060046 65 283 4.0 7.0 0.00 0.00 0.00 1017.1
20260510055528 65 282 5.0 7.0 0.00 0.00 0.00 1016.9
20260510055029 64 268 4.0 7.0 0.00 0.00 0.00 1016.8
20260510054537 64 223 1.0 5.0 0.00 0.00 0.00 1016.8
20260510054029 65 55 1.0 9.0 0.00 0.00 0.00 1016.9
20260510053529 66 307 1.0 9.0 0.00 0.00 0.00 1016.9
20260510053041 66 268 4.0 10.0 0.00 0.00 0.00 1017.0
20260510052529 66 286 2.0 10.0 0.00 0.00 0.00 1017.0
20260510052028 66 293 3.0 11.0 0.00 0.00 0.00 1017.0
20260510051542 66 299 2.0 11.0 0.00 0.00 0.00 1017.0
20260510051029 66 246 2.0 10.0 0.00 0.00 0.00 1017.0
20260510050528 67 288 2.0 9.0 0.00 0.00 0.00 1016.8
20260510050040 67 28 2.0 8.0 0.00 0.00 0.00 1016.8
20260510045541 67 280 2.0 7.0 0.00 0.00 0.00 1016.8
20260510045026 67 276 3.0 7.0 0.00 0.00 0.00 1016.7
20260510044540 67 295 2.0 7.0 0.00 0.00 0.00 1016.6
20260510044026 67 99 2.0 8.0 0.00 0.00 0.00 1016.4
20260510043526 67 183 2.0 8.0 0.00 0.00 0.00 1016.5
20260510043044 68 311 2.0 10.0 0.00 0.00 0.00 1016.5
20260510042524 68 268 4.0 11.0 0.00 0.00 0.00 1016.3
20260510042026 68 295 2.0 11.0 0.00 0.00 0.00 1016.3
20260510041549 68 243 1.0 10.0 0.00 0.00 0.00 1016.3
20260510041025 68 297 2.0 10.0 0.00 0.00 0.00 1016.2
20260510040527 68 298 4.0 10.0 0.00 0.00 0.00 1016.2
20260510040036 69 309 4.0 9.0 0.00 0.00 0.00 1016.2
20260510035528 69 302 3.0 9.0 0.00 0.00 0.00 1016.1
20260510035026 69 299 3.0 10.0 0.00 0.00 0.00 1016.1
20260510034540 70 297 4.0 10.0 0.00 0.00 0.00 1016.0
20260510034027 70 297 3.0 9.0 0.00 0.00 0.00 1016.1
20260510033524 70 285 5.0 9.0 0.00 0.00 0.00 1016.0
20260510033037 70 280 2.0 7.0 0.00 0.00 0.00 1016.0
20260510032523 70 286 1.0 9.0 0.00 0.00 0.00 1016.1
20260510032023 70 243 1.0 9.0 0.00 0.00 0.00 1016.0
20260510031537 71 0 2.0 9.0 0.00 0.00 0.00 1015.9
20260510031024 71 285 2.0 6.0 0.00 0.00 0.00 1015.9
20260510030527 72 277 2.0 5.0 0.00 0.00 0.00 1015.9
20260510030037 72 311 1.0 7.0 0.00 0.00 0.00 1015.9
20260510025523 72 39 1.0 7.0 0.00 0.00 0.00 1015.8
20260510025026 72 201 2.0 7.0 0.00 0.00 0.00 1015.8
20260510024547 73 0 1.0 6.0 0.00 0.00 0.00 1015.8
20260510024026 73 165 1.0 6.0 0.00 0.00 0.00 1015.9
20260510023523 73 0 1.0 6.0 0.00 0.00 0.00 1015.9
20260510023037 73 283 1.0 3.0 0.00 0.00 0.00 1015.9
20260510022526 74 269 1.0 4.0 0.00 0.00 0.00 1015.9
20260510022023 74 158 0.0 4.0 0.00 0.00 0.00 1016.0
20260510021537 74 268 2.0 4.0 0.00 0.00 0.00 1015.9
20260510021025 75 183 0.0 9.0 0.00 0.00 0.00 1015.9
20260510020527 74 295 2.0 9.0 0.00 0.00 0.00 1015.9
20260510020038 74 302 2.0 7.0 0.00 0.00 0.00 1015.9
20260510015523 75 141 2.0 7.0 0.00 0.00 0.00 1016.0
20260510015023 75 305 1.0 5.0 0.00 0.00 0.00 1015.9
20260510014543 76 286 1.0 7.0 0.00 0.00 0.00 1016.0
20260510014028 76 106 1.0 7.0 0.00 0.00 0.00 1016.1
20260510013528 76 280 1.0 7.0 0.00 0.00 0.00 1016.1
20260510013046 76 99 2.0 7.0 0.00 0.00 0.00 1016.3
20260510012529 77 322 1.0 7.0 0.00 0.00 0.00 1016.3
20260510012030 77 141 1.0 6.0 0.00 0.00 0.00 1016.2
20260510011539 77 18 1.0 8.0 0.00 0.00 0.00 1016.1
20260510011028 77 272 2.0 8.0 0.00 0.00 0.00 1016.3
20260510010528 78 292 2.0 6.0 0.00 0.00 0.00 1016.3
20260510010055 79 51 2.0 11.0 0.00 0.00 0.00 1016.4
20260510005527 81 327 3.0 11.0 0.00 0.00 0.00 1016.6
20260510005029 82 286 2.0 10.0 0.00 0.00 0.00 1016.5
20260510004546 81 281 2.0 6.0 0.00 0.00 0.00 1016.4
20260510004028 78 141 2.0 5.0 0.00 0.00 0.00 1016.4
20260510003529 80 311 1.0 7.0 0.00 0.00 0.00 1016.5
20260510003038 83 305 2.0 7.0 0.00 0.00 0.00 1016.6
20260510002528 86 295 1.0 8.0 0.00 0.00 0.00 1016.6
20260510002028 85 46 2.0 8.0 0.00 0.00 0.00 1016.6
20260510001538 86 286 2.0 8.0 0.00 0.00 0.00 1016.7
20260510001029 85 268 2.0 8.0 0.00 0.00 0.00 1016.5
20260510000528 87 39 1.0 5.0 0.00 0.00 0.00 1016.6
20260510000041 89 12 1.0 6.0 0.00 0.00 0.00 1016.6
20260509235528 89 248 1.0 8.0 0.00 0.00 0.00 1016.6
20260509235028 89 116 2.0 8.0 0.00 0.00 0.00 1016.8
20260509234559 89 39 1.0 6.0 0.00 0.00 0.00 1016.8